OBJECT G, 64882

Orbit data source: Space-Track

You're viewing an Uncataloged Satellite

Recently launched and/or uncataloged satellites may have evolving metadata. Metadata may include but not limited to: Owner, Maufacturer, Bus, Motor, and Mission.

OBJECT G, 64882 is a satellite in SSO that was launched on Fri, 25 Jul 2025 UTC via a SOYUZ-2-1B launch vehicle from the Vostochny Cosmodrome (VOSTO). Unknown objects in Earth's orbit typically refer to objects detected orbiting the Earth but have not yet been identified or cataloged. These objects could be anything from previously untracked satellites, spent rocket stages, debris from satellite collisions, or even natural meteoroids temporarily captured by Earth's gravity.

Loading next visibility...
Identifier
64882, 2025-155G
Orbit
SSO
Country
Flag of TBDTBD
Related business
None
Manufacturer
RATEKS
Mission
Operational spacecraft
Bus & Motor
CUBESAT 3U, Unknown motor
Mass
3 kg wet, 3 kg dry
Launch date (UTC)
2025-07-25 (1 month ago)
Launch vehicle
SOYUZ-2-1B
Launch site
Vostochny Cosmodrome (VOSTO)
Object type
Unknown
Shape & HBR
Unknown
Radar Cross Section
Small (<0.1 m²)

Expand to show TLE details & history
Last TLE update: 8 hours ago

TLE from 8 hours ago
0 OBJECT G
1 64882U 25155G   25242.92398441  .00013936  00000-0  60338-3 0  9996
2 64882  97.4181 207.6682 0010441 117.1521 243.0781 15.22476833 36486
Epoch: 2025-08-30T22:10Z
TLE epoch observation values (Epoch: 2025-08-30T22:10:32.253Z)
Latitude
-0.00002°
Longitude
-104.31749°
Altitude
504.723 km
Speed
7.61 km/s
True Right ascension
13h 50m 40s
True Declination
0° 00' 00"
Sunlit
Object was in daylight at epoch
Visualization orbit readout
Latitude
Unknown
Longitude
Unknown
Altitude
Unknown
Speed
Unknown
Apparent Right ascension
Unknown
Apparent Declination
Unknown
Sunlit
N/A
Visualization observer readout
Local Sidereal Time
21:43:46
Azimuth
Unknown
Elevation
Unknown
Doppler factor
Unknown
Orbital elements
Apogee altitude
502.512 km
Perigee altitude
488.159 km
Semi-major axis
6,873.473 km
Eccentricity
0.00104
Inclination
97.4181°
RAAN
207.6682°
Arg. of periapsis
117.1521°
True anomaly
242.97148°
Mean anomaly
243.0781°
Eccentric anomaly
243.02479°
Mean motion
3.80872 °/min
Orbital period
94.52 mins
BSTAR
0.00060338
Loading maneuver chart data...
Computing Atmospheric mass density...
Loading historical data...
Loading historical data...
Loading historical data...
Loading historical data...
Loading historical data...
Loading historical data...
Loading historical data...

Documentation

Showing up to 5 results
|